TimeCDT,TemperatureF,Dew PointF,Humidity,Sea Level PressureIn,VisibilityMPH,Wind Direction,Wind SpeedMPH,Gust SpeedMPH,PrecipitationIn,Events,Conditions,WindDirDegrees,DateUTC
12:54 AM,59.0,42.1,53,29.94,10.0,NW,5.8,-,N/A,,Mostly Cloudy,310,2014-05-04 05:54:00
1:54 AM,51.1,43.0,74,29.95,10.0,SSW,5.8,-,N/A,,Clear,200,2014-05-04 06:54:00
2:54 AM,55.0,43.0,64,29.94,10.0,WSW,3.5,-,N/A,,Clear,240,2014-05-04 07:54:00
3:54 AM,50.0,42.1,74,29.94,10.0,Calm,Calm,-,N/A,,Clear,0,2014-05-04 08:54:00
4:54 AM,48.9,43.0,80,29.95,10.0,Calm,Calm,-,N/A,,Clear,0,2014-05-04 09:54:00
5:54 AM,48.9,42.1,77,29.97,10.0,NW,3.5,-,N/A,,Clear,320,2014-05-04 10:54:00
6:54 AM,50.0,44.1,80,30.00,10.0,North,4.6,-,N/A,,Clear,350,2014-05-04 11:54:00
7:54 AM,57.9,46.9,67,30.01,10.0,NE,10.4,-,N/A,,Clear,40,2014-05-04 12:54:00
8:54 AM,61.0,39.9,46,30.02,10.0,NE,13.8,-,N/A,,Clear,40,2014-05-04 13:54:00
9:54 AM,63.0,41.0,45,30.03,10.0,NNE,12.7,19.6,N/A,,Clear,30,2014-05-04 14:54:00
10:54 AM,64.9,41.0,42,30.02,10.0,NNE,12.7,-,N/A,,Clear,30,2014-05-04 15:54:00
11:54 AM,64.9,42.1,43,30.03,10.0,ENE,13.8,-,N/A,,Clear,60,2014-05-04 16:54:00
12:54 PM,68.0,44.1,42,30.01,10.0,NNE,10.4,-,N/A,,Clear,30,2014-05-04 17:54:00
1:54 PM,70.0,45.0,41,29.99,10.0,ENE,11.5,-,N/A,,Clear,60,2014-05-04 18:54:00
2:54 PM,70.0,43.0,38,29.98,10.0,ENE,11.5,-,N/A,,Clear,60,2014-05-04 19:54:00
3:54 PM,69.1,43.0,39,29.96,10.0,NE,16.1,-,N/A,,Clear,50,2014-05-04 20:54:00
4:54 PM,70.0,42.1,36,29.96,10.0,ENE,12.7,-,N/A,,Clear,60,2014-05-04 21:54:00
5:54 PM,68.0,42.1,39,29.95,10.0,ENE,9.2,-,N/A,,Clear,70,2014-05-04 22:54:00
6:54 PM,66.0,39.9,38,29.94,10.0,ENE,11.5,-,N/A,,Clear,70,2014-05-04 23:54:00
7:54 PM,62.1,37.0,39,29.96,10.0,ENE,21.9,29.9,N/A,,Clear,60,2014-05-05 00:54:00
8:54 PM,55.9,30.9,39,29.94,10.0,East,19.6,29.9,N/A,,Clear,80,2014-05-05 01:54:00
9:54 PM,54.0,24.1,31,29.98,10.0,ENE,21.9,-,N/A,,Clear,70,2014-05-05 02:54:00
10:54 PM,52.0,24.1,34,29.97,10.0,ENE,19.6,-,N/A,,Clear,70,2014-05-05 03:54:00
11:54 PM,51.1,25.0,36,29.95,10.0,East,18.4,-,N/A,,Clear,80,2014-05-05 04:54:00